Location: Sternwarte ZA, Rosenfeld-Brittheim
(48.2889°N, 8.6789°E)
Time: 09:40:37
(UTC+02:00)

ISS - Pass Details

Date: 21 May 2018
Orbit: 402 x 407 km, 51.6° (Epoch: 27 May)

Event Time Altitude Azimuth Distance (km) Brightness Sun altitude
Rises 23:50:27 0° 254° (WSW) 2,315 0.1 -18.4°
Reaches altitude 10° 23:52:32 10° 257° (WSW) 1,457 -0.9 -18.5°
Maximum altitude 23:55:47 71° 341° (NNW) 431 -3.6 -18.7°
Drops below altitude 10° 23:59:03 10° 67° (ENE) 1,460 -1.0 -18.9°
Sets 00:01:09 0° 69° (ENE) 2,321 0.0 -19.0°
